SUD785 HUEN-HJJJ

Flight info

Callsign SUD785
Flight time 0h 56m
Altitude 32000
Route UVBAX2D UVBAX UG656 ATUGA ATUGA1A
Aircraft A320/M-SDE3FGHIRWY/LB1

Departure

Time 2026-05-07 19:33
Airport Entebbe International Airport (HUEN)

Arrival

Time 2026-05-07 20:30
Airport Juba International Airport (HJJJ)
Time Latitude Longitude Altitude Speed Heading
2026-05-07 19:05 0.04514 32.44179 3780 ft 0 kts 81°
2026-05-07 19:21 0.04512 32.44161 3785 ft 4 kts 104°
2026-05-07 19:21 0.04521 32.44137 3780 ft 2 kts 99°
2026-05-07 19:21 0.04526 32.44115 3780 ft 4 kts 121°
2026-05-07 19:21 0.04544 32.44097 3786 ft 4 kts 165°
2026-05-07 19:22 0.04555 32.44095 3780 ft 1 kts 172°
2026-05-07 19:25 0.04551 32.44096 3784 ft 2 kts 172°
2026-05-07 19:25 0.04522 32.44100 3783 ft 7 kts 171°
2026-05-07 19:26 0.04459 32.44109 3780 ft 11 kts 173°
2026-05-07 19:26 0.04364 32.44121 3780 ft 16 kts 173°
2026-05-07 19:26 0.04243 32.44134 3785 ft 17 kts 201°
2026-05-07 19:26 0.04206 32.44012 3774 ft 22 kts 257°
2026-05-07 19:27 0.04078 32.44001 3772 ft 21 kts 173°
2026-05-07 19:27 0.03926 32.44019 3778 ft 23 kts 173°
2026-05-07 19:27 0.03754 32.44043 3772 ft 26 kts 172°
2026-05-07 19:27 0.03562 32.44069 3781 ft 29 kts 171°
2026-05-07 19:28 0.03358 32.44100 3769 ft 30 kts 172°
2026-05-07 19:28 0.03152 32.44127 3769 ft 30 kts 172°
2026-05-07 19:28 0.02935 32.44156 3762 ft 32 kts 172°
2026-05-07 19:28 0.02710 32.44189 3759 ft 33 kts 172°
2026-05-07 19:29 0.02477 32.44221 3752 ft 35 kts 172°
2026-05-07 19:29 0.02306 32.44179 3750 ft 13 kts 246°
2026-05-07 19:29 0.02305 32.44174 3750 ft 0 kts 250°
2026-05-07 19:30 0.02300 32.44161 3750 ft 4 kts 251°
2026-05-07 19:30 0.02294 32.44113 3750 ft 9 kts 277°
2026-05-07 19:31 0.02349 32.44066 3751 ft 8 kts 351°
2026-05-07 19:31 0.02359 32.44064 3751 ft 0 kts 352°
2026-05-07 19:32 0.02409 32.44058 3752 ft 34 kts 352°
2026-05-07 19:32 0.02904 32.43989 3774 ft 102 kts 352°
2026-05-07 19:32 0.03816 32.43863 3771 ft 156 kts 352°
2026-05-07 19:32 0.04615 32.43753 3785 ft 185 kts 352°
2026-05-07 19:33 0.05923 32.43585 4361 ft 184 kts 352°
2026-05-07 19:33 0.07199 32.43415 5085 ft 185 kts 352°
2026-05-07 19:33 0.08465 32.43240 5688 ft 184 kts 352°
2026-05-07 19:33 0.09817 32.43052 5860 ft 205 kts 353°
2026-05-07 19:34 0.11301 32.42843 6080 ft 224 kts 352°
2026-05-07 19:34 0.12932 32.42617 6256 ft 249 kts 352°
2026-05-07 19:34 0.14714 32.42374 6595 ft 269 kts 352°
2026-05-07 19:34 0.16631 32.42108 7043 ft 284 kts 352°
2026-05-07 19:35 0.18597 32.41832 7729 ft 288 kts 352°
2026-05-07 19:35 0.20598 32.41551 8429 ft 292 kts 352°
2026-05-07 19:35 0.22621 32.41266 9130 ft 295 kts 352°
2026-05-07 19:35 0.24662 32.40978 9813 ft 298 kts 352°
2026-05-07 19:36 0.26725 32.40688 10505 ft 301 kts 352°
2026-05-07 19:36 0.28804 32.40397 11192 ft 303 kts 353°
2026-05-07 19:36 0.30900 32.40098 11882 ft 305 kts 352°
2026-05-07 19:36 0.33003 32.39724 12577 ft 308 kts 349°
2026-05-07 19:37 0.35108 32.39295 13244 ft 311 kts 349°
2026-05-07 19:37 0.37236 32.38840 13883 ft 314 kts 349°
2026-05-07 19:37 0.39403 32.38376 14334 ft 325 kts 349°
2026-05-07 19:37 0.41684 32.37895 14460 ft 345 kts 349°
2026-05-07 19:38 0.44099 32.37394 14715 ft 359 kts 349°
2026-05-07 19:38 0.46567 32.36887 15216 ft 365 kts 349°
2026-05-07 19:38 0.49063 32.36375 15773 ft 368 kts 349°
2026-05-07 19:38 0.51589 32.35861 16329 ft 371 kts 349°
2026-05-07 19:39 0.54132 32.35345 16873 ft 375 kts 349°
2026-05-07 19:39 0.56698 32.34826 17402 ft 378 kts 349°
2026-05-07 19:39 0.59284 32.34304 17915 ft 381 kts 349°
2026-05-07 19:39 0.61927 32.33768 18419 ft 384 kts 349°
2026-05-07 19:40 0.64559 32.33231 18913 ft 387 kts 349°
2026-05-07 19:40 0.67211 32.32690 19396 ft 390 kts 349°
2026-05-07 19:40 0.69886 32.32145 19882 ft 393 kts 349°
2026-05-07 19:40 0.72545 32.31603 20335 ft 396 kts 349°
2026-05-07 19:41 0.75252 32.31052 20783 ft 399 kts 349°
2026-05-07 19:41 0.77990 32.30493 21241 ft 402 kts 349°
2026-05-07 19:41 0.80741 32.29932 21679 ft 405 kts 349°
2026-05-07 19:41 0.83513 32.29368 22109 ft 408 kts 349°
2026-05-07 19:42 0.86318 32.28796 22547 ft 411 kts 348°
2026-05-07 19:42 0.89164 32.28215 22970 ft 414 kts 348°
2026-05-07 19:42 0.91966 32.27644 23365 ft 417 kts 348°
2026-05-07 19:42 0.94812 32.27063 23760 ft 419 kts 348°
2026-05-07 19:43 0.97717 32.26471 24139 ft 422 kts 348°
2026-05-07 19:43 1.00565 32.25891 24497 ft 424 kts 348°
2026-05-07 19:43 1.03506 32.25293 24854 ft 427 kts 348°
2026-05-07 19:43 1.06422 32.24699 25198 ft 429 kts 348°
2026-05-07 19:44 1.09351 32.24102 25533 ft 431 kts 348°
2026-05-07 19:44 1.12296 32.23503 25863 ft 433 kts 348°
2026-05-07 19:44 1.15267 32.22913 26187 ft 435 kts 349°
2026-05-07 19:44 1.18251 32.22342 26499 ft 437 kts 349°
2026-05-07 19:45 1.21217 32.21788 26793 ft 439 kts 349°
2026-05-07 19:45 1.24231 32.21227 27086 ft 441 kts 349°
2026-05-07 19:45 1.27266 32.20659 27385 ft 444 kts 349°
2026-05-07 19:45 1.30304 32.20085 27668 ft 446 kts 349°
2026-05-07 19:46 1.33358 32.19502 27954 ft 447 kts 349°
2026-05-07 19:46 1.36423 32.18917 28232 ft 449 kts 349°
2026-05-07 19:46 1.39501 32.18330 28494 ft 451 kts 349°
2026-05-07 19:46 1.42586 32.17745 28753 ft 453 kts 349°
2026-05-07 19:47 1.45689 32.17156 29007 ft 454 kts 349°
2026-05-07 19:47 1.48807 32.16558 29256 ft 456 kts 349°
2026-05-07 19:47 1.51968 32.15951 29495 ft 458 kts 349°
2026-05-07 19:47 1.55108 32.15353 29735 ft 460 kts 349°
2026-05-07 19:48 1.58258 32.14756 29974 ft 461 kts 349°
2026-05-07 19:48 1.61426 32.14156 30202 ft 463 kts 349°
2026-05-07 19:48 1.64639 32.13546 30423 ft 465 kts 349°
2026-05-07 19:48 1.67821 32.12941 30636 ft 466 kts 349°
2026-05-07 19:49 1.71010 32.12336 30844 ft 468 kts 349°
2026-05-07 19:49 1.74212 32.11725 31045 ft 469 kts 349°
2026-05-07 19:49 1.77430 32.11112 31239 ft 470 kts 349°
2026-05-07 19:49 1.80644 32.10499 31504 ft 470 kts 349°
2026-05-07 19:50 1.83848 32.09888 31793 ft 469 kts 349°
2026-05-07 19:50 1.87062 32.09278 31998 ft 469 kts 349°
2026-05-07 19:50 1.90274 32.08666 32044 ft 457 kts 349°
2026-05-07 19:50 1.93362 32.08078 32044 ft 449 kts 349°
2026-05-07 19:51 1.99473 32.06916 32044 ft 445 kts 349°
2026-05-07 19:51 2.05558 32.05759 32036 ft 445 kts 349°
2026-05-07 19:52 2.11691 32.04595 32036 ft 445 kts 349°
2026-05-07 19:52 2.17760 32.03446 32034 ft 444 kts 349°
2026-05-07 19:53 2.23825 32.02288 32025 ft 443 kts 349°
2026-05-07 19:53 2.29884 32.01129 32017 ft 443 kts 349°
2026-05-07 19:54 2.35947 31.99983 32015 ft 443 kts 349°
2026-05-07 19:54 2.42052 31.98823 32014 ft 443 kts 349°
2026-05-07 19:55 2.47126 31.97851 32009 ft 443 kts 349°
2026-05-07 19:55 2.53225 31.96688 32007 ft 443 kts 349°
2026-05-07 19:56 2.59338 31.95818 32006 ft 443 kts 353°
2026-05-07 19:56 2.65481 31.95218 32003 ft 443 kts 354°
2026-05-07 19:57 2.71599 31.94618 31995 ft 442 kts 354°
2026-05-07 19:57 2.77748 31.93933 31992 ft 442 kts 353°
2026-05-07 19:58 2.83824 31.93221 31991 ft 443 kts 353°
2026-05-07 19:58 2.89992 31.92500 31988 ft 443 kts 353°
2026-05-07 19:59 2.96115 31.91801 31993 ft 443 kts 353°
2026-05-07 19:59 3.02249 31.91113 31993 ft 443 kts 353°
2026-05-07 20:00 3.08421 31.90415 31996 ft 443 kts 353°
2026-05-07 20:00 3.14540 31.89723 31995 ft 443 kts 353°
2026-05-07 20:01 3.20664 31.89033 32009 ft 442 kts 353°
2026-05-07 20:01 3.26799 31.88332 32064 ft 443 kts 353°
2026-05-07 20:02 3.32963 31.87631 32080 ft 443 kts 353°
2026-05-07 20:02 3.39083 31.86933 32087 ft 442 kts 353°
2026-05-07 20:03 3.45243 31.86236 32090 ft 442 kts 353°
2026-05-07 20:03 3.51338 31.85542 32097 ft 442 kts 353°
2026-05-07 20:04 3.57446 31.84845 32097 ft 441 kts 353°
2026-05-07 20:04 3.63556 31.84145 32095 ft 442 kts 353°
2026-05-07 20:05 3.69670 31.83451 32098 ft 442 kts 353°
2026-05-07 20:05 3.75819 31.82754 32099 ft 442 kts 353°
2026-05-07 20:06 3.81938 31.82056 32100 ft 442 kts 353°
2026-05-07 20:06 3.88084 31.81355 32098 ft 441 kts 353°
2026-05-07 20:07 3.94179 31.80647 32046 ft 441 kts 350°
2026-05-07 20:07 3.97150 31.79890 32024 ft 439 kts 339°
2026-05-07 20:07 3.99907 31.78600 31997 ft 438 kts 328°
2026-05-07 20:08 4.04488 31.74642 31661 ft 427 kts 309°
2026-05-07 20:08 4.06406 31.72340 31405 ft 423 kts 309°
2026-05-07 20:08 4.08281 31.70096 31029 ft 418 kts 309°
2026-05-07 20:09 4.10130 31.67884 30519 ft 416 kts 309°
2026-05-07 20:09 4.11979 31.65670 30035 ft 413 kts 309°
2026-05-07 20:09 4.13821 31.63466 29530 ft 411 kts 309°
2026-05-07 20:10 4.17471 31.59104 28571 ft 406 kts 309°
2026-05-07 20:10 4.19302 31.56914 28092 ft 403 kts 309°
2026-05-07 20:10 4.21096 31.54768 27625 ft 400 kts 309°
2026-05-07 20:10 4.22876 31.52639 27168 ft 398 kts 309°
2026-05-07 20:11 4.24653 31.50508 26701 ft 396 kts 309°
2026-05-07 20:11 4.26411 31.48399 26245 ft 393 kts 310°
2026-05-07 20:11 4.28158 31.46307 25772 ft 391 kts 310°
2026-05-07 20:11 4.29898 31.44222 25301 ft 388 kts 310°
2026-05-07 20:12 4.31630 31.42148 24809 ft 386 kts 310°
2026-05-07 20:12 4.33349 31.40089 24316 ft 384 kts 310°
2026-05-07 20:12 4.35077 31.38014 23819 ft 383 kts 310°
2026-05-07 20:12 4.36781 31.35970 23326 ft 381 kts 310°
2026-05-07 20:13 4.38477 31.33938 22832 ft 379 kts 310°
2026-05-07 20:13 4.39592 31.32602 22505 ft 378 kts 310°
2026-05-07 20:13 4.41277 31.30586 22018 ft 376 kts 310°
2026-05-07 20:13 4.43128 31.28696 21519 ft 374 kts 326°
2026-05-07 20:14 4.45474 31.27650 21045 ft 369 kts 350°
2026-05-07 20:14 4.48042 31.27652 20570 ft 365 kts 14°
2026-05-07 20:14 4.50338 31.28666 20108 ft 361 kts 37°
2026-05-07 20:14 4.52287 31.30243 19647 ft 359 kts 40°
2026-05-07 20:15 4.54202 31.31856 19190 ft 358 kts 40°
2026-05-07 20:15 4.56121 31.33488 18730 ft 356 kts 41°
2026-05-07 20:15 4.58005 31.35093 18275 ft 354 kts 41°
2026-05-07 20:15 4.59883 31.36687 17833 ft 353 kts 40°
2026-05-07 20:16 4.61756 31.38272 17391 ft 351 kts 40°
2026-05-07 20:16 4.63647 31.39864 16950 ft 349 kts 40°
2026-05-07 20:16 4.65497 31.41420 16512 ft 346 kts 40°
2026-05-07 20:16 4.67332 31.42964 16096 ft 343 kts 40°
2026-05-07 20:17 4.69187 31.44518 15685 ft 341 kts 40°
2026-05-07 20:17 4.71013 31.46047 15252 ft 342 kts 40°
2026-05-07 20:17 4.72833 31.47572 14825 ft 339 kts 40°
2026-05-07 20:17 4.74633 31.49086 14415 ft 337 kts 41°
2026-05-07 20:18 4.76422 31.50596 14003 ft 336 kts 41°
2026-05-07 20:18 4.78253 31.52143 13581 ft 334 kts 41°
2026-05-07 20:18 4.80012 31.53631 13163 ft 332 kts 41°
2026-05-07 20:18 4.81799 31.55141 12737 ft 330 kts 41°
2026-05-07 20:19 4.83550 31.56622 12322 ft 328 kts 41°
2026-05-07 20:19 4.85304 31.58102 12064 ft 321 kts 41°
2026-05-07 20:19 4.86985 31.59516 11926 ft 310 kts 41°
2026-05-07 20:19 4.88651 31.60916 11642 ft 305 kts 41°
2026-05-07 20:20 4.90288 31.62294 11276 ft 303 kts 41°
2026-05-07 20:20 4.91896 31.63649 10884 ft 302 kts 41°
2026-05-07 20:20 4.93505 31.65006 10479 ft 302 kts 41°
2026-05-07 20:20 4.95154 31.66398 10079 ft 301 kts 40°
2026-05-07 20:21 4.96587 31.67868 9908 ft 290 kts 59°
2026-05-07 20:21 4.97241 31.69717 9752 ft 278 kts 85°
2026-05-07 20:21 4.96990 31.71605 9432 ft 274 kts 113°
2026-05-07 20:21 4.95920 31.73156 9053 ft 273 kts 139°
2026-05-07 20:22 4.94346 31.74204 8647 ft 273 kts 149°
2026-05-07 20:22 4.92696 31.75194 8254 ft 272 kts 149°
2026-05-07 20:22 4.91073 31.76172 7876 ft 271 kts 149°
2026-05-07 20:22 4.89484 31.77131 7500 ft 269 kts 149°
2026-05-07 20:23 4.87865 31.78111 7124 ft 268 kts 149°
2026-05-07 20:23 4.86274 31.79074 6731 ft 267 kts 149°
2026-05-07 20:23 4.84685 31.80028 6356 ft 266 kts 151°
2026-05-07 20:23 4.82950 31.80598 5992 ft 262 kts 175°
2026-05-07 20:24 4.81163 31.80384 5618 ft 260 kts 201°
2026-05-07 20:24 4.79661 31.79465 5474 ft 248 kts 220°
2026-05-07 20:24 4.78362 31.78362 5240 ft 242 kts 220°
2026-05-07 20:24 4.77104 31.77300 5092 ft 228 kts 220°
2026-05-07 20:25 4.76100 31.76162 4986 ft 208 kts 243°
2026-05-07 20:25 4.75729 31.74813 4672 ft 199 kts 269°
2026-05-07 20:25 4.76010 31.73457 4164 ft 201 kts 297°
2026-05-07 20:25 4.76817 31.72365 3915 ft 189 kts 311°
2026-05-07 20:26 4.77648 31.71397 3779 ft 177 kts 310°
2026-05-07 20:26 4.78165 31.70788 3711 ft 169 kts 310°
2026-05-07 20:26 4.78918 31.69901 3613 ft 161 kts 310°
2026-05-07 20:26 4.79631 31.69056 3540 ft 158 kts 310°
2026-05-07 20:27 4.80356 31.68198 3508 ft 166 kts 310°
2026-05-07 20:27 4.81095 31.67322 3209 ft 161 kts 310°
2026-05-07 20:27 4.81803 31.66486 3000 ft 155 kts 310°
2026-05-07 20:27 4.82501 31.65664 2763 ft 152 kts 310°
2026-05-07 20:28 4.83175 31.64874 2546 ft 150 kts 310°
2026-05-07 20:28 4.83868 31.64060 2338 ft 149 kts 310°
2026-05-07 20:28 4.84539 31.63270 2137 ft 148 kts 310°
2026-05-07 20:28 4.85201 31.62486 1957 ft 148 kts 310°
2026-05-07 20:29 4.85879 31.61680 1732 ft 147 kts 310°
2026-05-07 20:29 4.86537 31.60890 1538 ft 146 kts 310°
2026-05-07 20:29 4.87136 31.60187 1512 ft 108 kts 310°
2026-05-07 20:29 4.87512 31.59743 1513 ft 59 kts 310°
2026-05-07 20:30 4.87745 31.59469 1517 ft 48 kts 311°
2026-05-07 20:30 4.87875 31.59287 1516 ft 16 kts 263°
2026-05-07 20:30 4.87798 31.59226 1516 ft 14 kts 213°
2026-05-07 20:30 4.87762 31.59197 1516 ft 0 kts 223°
2026-05-07 20:31 4.87759 31.59196 1516 ft 3 kts 216°
2026-05-07 20:31 4.87702 31.59206 1516 ft 14 kts 139°
2026-05-07 20:31 4.87618 31.59304 1516 ft 22 kts 131°
2026-05-07 20:32 4.87518 31.59422 1514 ft 23 kts 130°
2026-05-07 20:32 4.87412 31.59547 1516 ft 24 kts 130°
2026-05-07 20:32 4.87300 31.59679 1515 ft 25 kts 130°
2026-05-07 20:32 4.87186 31.59814 1515 ft 26 kts 130°
2026-05-07 20:33 4.87063 31.59959 1514 ft 27 kts 131°
2026-05-07 20:33 4.86942 31.60101 1514 ft 27 kts 130°
2026-05-07 20:33 4.86817 31.60249 1515 ft 27 kts 130°
2026-05-07 20:33 4.86698 31.60388 1516 ft 18 kts 130°
2026-05-07 20:34 4.86635 31.60459 1514 ft 13 kts 133°
2026-05-07 20:34 4.86598 31.60503 1514 ft 11 kts 134°
2026-05-07 20:34 4.86528 31.60475 1515 ft 6 kts 220°
2026-05-07 20:34 4.86518 31.60467 1514 ft 1 kts 219°
2026-05-07 20:35 4.86516 31.60465 1515 ft 0 kts 219°